When you browse on this site, cookies collect data to enhance your experience and personalize the content and advertising you see.
Visit our Privacy Policy to learn more. By continuing to use the site, you agree to this use of cookies and data.
  • în România
  • Lista ţărilor
  • Pe 7 zile
  • Temperatura apei
  • Hartă satelitară
  • Meteo pe hartă
  • Widget-uri
  • user-avatar
    Intrare

    Meteo pe oră la Eruslanovka

    Astăzi, 21 Noiembrie, Miercuri

    Timp Temperatura Precipitaţii Vânt Presiune Umiditate
    00:00 +7°C° 0.1 mm 2 m/s 732 mmHg 92%
    01:00 +6°C° 0 mm 2 m/s 732 mmHg 93%
    02:00 +6°C° 0 mm 2 m/s 733 mmHg 93%
    03:00 +6°C° 0 mm 2 m/s 733 mmHg 93%
    04:00 +6°C° 0 mm 2 m/s 733 mmHg 93%
    05:00 +6°C° 0 mm 2 m/s 733 mmHg 93%
    06:00 +6°C° 0 mm 2 m/s 733 mmHg 92%
    07:00 +6°C° 0 mm 2 m/s 733 mmHg 91%
    08:00 +6°C° 0 mm 2 m/s 733 mmHg 90%
    09:00 +7°C° 0 mm 2 m/s 733 mmHg 88%
    10:00 +7°C° 0 mm 2 m/s 733 mmHg 85%
    11:00 +7°C° 0 mm 2 m/s 733 mmHg 83%
    12:00 +7°C° 0 mm 2 m/s 733 mmHg 80%
    13:00 +7°C° 0 mm 2 m/s 732 mmHg 81%
    14:00 +7°C° 0 mm 2 m/s 732 mmHg 82%
    15:00 +7°C° 0 mm 2 m/s 732 mmHg 83%
    16:00 +6°C° 0 mm 2 m/s 732 mmHg 86%
    17:00 +6°C° 0 mm 2 m/s 732 mmHg 88%
    18:00 +5°C° 0 mm 2 m/s 732 mmHg 91%
    19:00 +5°C° 0 mm 2 m/s 732 mmHg 92%
    20:00 +5°C° 0 mm 2 m/s 732 mmHg 93%
    21:00 +5°C° 0 mm 1 m/s 732 mmHg 94%
    22:00 +5°C° 0 mm 1 m/s 732 mmHg 94%
    23:00 +5°C° 0 mm 1 m/s 731 mmHg 94%

    Mâine, 22 Noiembrie, Joi

    Timp Temperatura Precipitaţii Vânt Presiune Umiditate
    00:00 +5°C° 0 mm 1 m/s 731 mmHg 93%
    01:00 +5°C° 0 mm 1 m/s 731 mmHg 93%
    02:00 +5°C° 0 mm 1 m/s 731 mmHg 92%
    03:00 +5°C° 0 mm 1 m/s 731 mmHg 92%
    04:00 +5°C° 0 mm 1 m/s 731 mmHg 92%
    05:00 +5°C° 0 mm 1 m/s 731 mmHg 92%
    06:00 +5°C° 0 mm 1 m/s 731 mmHg 92%
    07:00 +5°C° 0 mm 1 m/s 731 mmHg 91%
    08:00 +5°C° 0 mm 1 m/s 731 mmHg 89%
    09:00 +5°C° 0 mm 1 m/s 731 mmHg 88%
    10:00 +6°C° 0.2 mm 1 m/s 731 mmHg 86%
    11:00 +6°C° 0.2 mm 1 m/s 730 mmHg 84%
    12:00 +7°C° 0.2 mm 1 m/s 730 mmHg 82%
    13:00 +7°C° 0.4 mm 1 m/s 730 mmHg 83%
    14:00 +7°C° 0.4 mm 1 m/s 730 mmHg 83%
    15:00 +7°C° 0.4 mm 1 m/s 730 mmHg 84%
    16:00 +6°C° 0.5 mm 1 m/s 730 mmHg 85%
    17:00 +6°C° 0.5 mm 1 m/s 730 mmHg 87%
    18:00 +6°C° 0.5 mm 1 m/s 730 mmHg 89%
    19:00 +5°C° 0.3 mm 1 m/s 731 mmHg 90%
    20:00 +5°C° 0.3 mm 1 m/s 731 mmHg 91%
    21:00 +4°C° 0.3 mm 0 m/s 731 mmHg 93%
    22:00 +3°C° 0 mm 0 m/s 731 mmHg 92%
    23:00 +4°C° 0 mm 1 m/s 731 mmHg 91%

    Poimâine, 23 Noiembrie, Vineri

    Timp Temperatura Precipitaţii Vânt Presiune Umiditate
    00:00 +4°C° 0 mm 1 m/s 731 mmHg 91%
    01:00 +4°C° 0 mm 1 m/s 731 mmHg 91%
    02:00 +4°C° 0 mm 1 m/s 731 mmHg 90%
    03:00 +4°C° 0 mm 1 m/s 731 mmHg 90%
    04:00 +3°C° 0 mm 1 m/s 731 mmHg 90%
    05:00 +2°C° 0 mm 2 m/s 732 mmHg 90%
    06:00 +2°C° 0 mm 2 m/s 732 mmHg 90%
    07:00 +2°C° 0 mm 2 m/s 732 mmHg 86%
    08:00 +1°C° 0 mm 3 m/s 733 mmHg 83%
    09:00 0°C° 0 mm 4 m/s 733 mmHg 79%
    10:00 +1°C° 0 mm 4 m/s 733 mmHg 72%
    11:00 +2°C° 0 mm 5 m/s 733 mmHg 66%
    12:00 +3°C° 0 mm 5 m/s 734 mmHg 60%
    13:00 +3°C° 0 mm 5 m/s 734 mmHg 58%
    14:00 +3°C° 0 mm 5 m/s 735 mmHg 57%
    15:00 +3°C° 0 mm 5 m/s 735 mmHg 55%
    16:00 +3°C° 0 mm 4 m/s 736 mmHg 60%
    17:00 +2°C° 0 mm 3 m/s 737 mmHg 65%
    18:00 0°C° 0 mm 3 m/s 738 mmHg 70%
    19:00 +1°C° 0 mm 2 m/s 738 mmHg 73%
    20:00 +1°C° 0 mm 1 m/s 739 mmHg 77%
    21:00 +1°C° 0 mm 1 m/s 740 mmHg 80%
    22:00 0°C° 0 mm 1 m/s 740 mmHg 82%
    23:00 0°C° 0 mm 1 m/s 740 mmHg 84%

    24 Noiembrie, Sâmbătă

    Timp Temperatura Precipitaţii Vânt Presiune Umiditate
    00:00 0°C° 0 mm 1 m/s 740 mmHg 86%
    01:00 0°C° 0 mm 1 m/s 740 mmHg 85%
    02:00 0°C° 0 mm 1 m/s 740 mmHg 85%
    03:00 0°C° 0 mm 1 m/s 740 mmHg 85%
    04:00 -2°C° 0 mm 2 m/s 740 mmHg 85%
    05:00 -2°C° 0 mm 2 m/s 741 mmHg 85%
    06:00 -2°C° 0 mm 2 m/s 741 mmHg 84%
    07:00 -2°C° 0 mm 2 m/s 741 mmHg 82%
    08:00 -1°C° 0 mm 2 m/s 741 mmHg 79%
    09:00 -1°C° 0 mm 3 m/s 741 mmHg 76%
    10:00 0°C° 0 mm 3 m/s 741 mmHg 71%
    11:00 +2°C° 0 mm 3 m/s 740 mmHg 67%
    12:00 +3°C° 0 mm 3 m/s 740 mmHg 62%
    13:00 +3°C° 0 mm 3 m/s 739 mmHg 63%
    14:00 +3°C° 0 mm 3 m/s 739 mmHg 64%
    15:00 +3°C° 0 mm 3 m/s 739 mmHg 65%
    16:00 +2°C° 0 mm 3 m/s 739 mmHg 70%
    17:00 +1°C° 0 mm 3 m/s 739 mmHg 74%
    18:00 -1°C° 0 mm 3 m/s 739 mmHg 78%
    19:00 -1°C° 0 mm 3 m/s 739 mmHg 77%
    20:00 -1°C° 0 mm 2 m/s 739 mmHg 76%
    21:00 -1°C° 0 mm 2 m/s 739 mmHg 75%
    22:00 -1°C° 0 mm 2 m/s 738 mmHg 73%
    23:00 -1°C° 0 mm 2 m/s 738 mmHg 71%

    25 Noiembrie, Duminică

    Timp Temperatura Precipitaţii Vânt Presiune Umiditate
    00:00 -1°C° 0 mm 2 m/s 738 mmHg 70%
    01:00 -1°C° 0 mm 2 m/s 737 mmHg 69%
    02:00 +1°C° 0 mm 1 m/s 737 mmHg 68%
    03:00 +1°C° 0 mm 1 m/s 737 mmHg 68%
    04:00 +1°C° 0 mm 1 m/s 736 mmHg 67%
    05:00 +1°C° 0 mm 1 m/s 736 mmHg 67%
    06:00 +1°C° 0 mm 1 m/s 736 mmHg 67%
    07:00 +2°C° 0 mm 1 m/s 736 mmHg 65%
    08:00 +3°C° 0 mm 1 m/s 735 mmHg 63%
    09:00 +4°C° 0 mm 1 m/s 735 mmHg 61%
    10:00 +5°C° 0 mm 1 m/s 735 mmHg 56%
    11:00 +6°C° 0 mm 1 m/s 734 mmHg 52%
    12:00 +8°C° 0 mm 1 m/s 734 mmHg 47%
    13:00 +8°C° 0 mm 1 m/s 734 mmHg 50%
    14:00 +8°C° 0 mm 1 m/s 733 mmHg 52%
    15:00 +8°C° 0 mm 1 m/s 733 mmHg 55%
    16:00 +6°C° 0 mm 1 m/s 733 mmHg 59%
    17:00 +5°C° 0 mm 1 m/s 733 mmHg 64%
    18:00 +4°C° 0 mm 1 m/s 733 mmHg 68%
    19:00 +4°C° 0 mm 1 m/s 733 mmHg 68%
    20:00 +4°C° 0 mm 1 m/s 733 mmHg 68%
    21:00 +4°C° 0 mm 1 m/s 733 mmHg 68%
    22:00 +4°C° 0 mm 1 m/s 732 mmHg 67%
    23:00 +3°C° 0 mm 0 m/s 732 mmHg 66%

    26 Noiembrie, Luni

    Timp Temperatura Precipitaţii Vânt Presiune Umiditate
    00:00 +3°C° 0 mm 0 m/s 732 mmHg 65%
    01:00 +3°C° 0 mm 0 m/s 732 mmHg 64%
    02:00 +3°C° 0 mm 0 m/s 732 mmHg 63%
    03:00 +3°C° 0 mm 0 m/s 732 mmHg 62%
    04:00 +3°C° 0 mm 0 m/s 732 mmHg 61%
    05:00 +3°C° 0 mm 0 m/s 732 mmHg 61%
    06:00 +3°C° 0 mm 0 m/s 731 mmHg 60%
    07:00 +4°C° 0 mm 0 m/s 731 mmHg 58%
    08:00 +5°C° 0 mm 0 m/s 731 mmHg 55%
    09:00 +7°C° 0 mm 1 m/s 732 mmHg 53%
    10:00 +8°C° 0 mm 1 m/s 731 mmHg 49%
    11:00 +9°C° 0 mm 1 m/s 731 mmHg 45%
    12:00 +10°C° 0 mm 1 m/s 731 mmHg 41%
    13:00 +10°C° 0 mm 1 m/s 730 mmHg 43%
    14:00 +10°C° 0 mm 1 m/s 730 mmHg 44%
    15:00 +10°C° 0 mm 1 m/s 730 mmHg 46%
    16:00 +9°C° 0 mm 1 m/s 730 mmHg 49%
    17:00 +8°C° 0 mm 1 m/s 731 mmHg 52%
    18:00 +7°C° 0 mm 1 m/s 731 mmHg 55%
    19:00 +7°C° 0 mm 1 m/s 731 mmHg 56%
    20:00 +6°C° 0 mm 1 m/s 731 mmHg 57%
    21:00 +6°C° 0 mm 1 m/s 731 mmHg 58%
    22:00 +6°C° 0 mm 1 m/s 731 mmHg 59%
    23:00 +6°C° 0 mm 1 m/s 730 mmHg 59%
    Arată mai mult